QPF
0.00 0.00 0.00 0.00 0.00 0.00 0.00 0.00 0.00 0.00 0.00 0.00 0.00 0.00 0.00 0.00 0.00 0.00 0.00 0.03 0.08 0.05 0.02 0.00 0.00 0.00 0.00 0.00 0.02 0.00 0.00 0.00 0.00 0.00 0.01 0.02 0.02 0.01 0.01 0.02 0.05 0.02 0.01
0.00 0.00 0.00 0.00 0.00 0.00 0.00 0.00 0.00 0.00 0.00 0.00 0.00 0.00 0.00 0.00 0.00 0.00 0.00 0.04 0.03 0.07 0.00 0.00 0.00 0.00 0.00 0.00 0.02 0.02 0.02 0.00 0.00 0.01 0.01 0.03 0.03 0.04 0.05 0.02 0.02 0.01 0.01
0.00 0.00 0.00 0.00 0.00 0.00 0.00 0.00 0.00 0.00 0.00 0.00 0.00 0.00 0.00 0.00 0.00 0.03 0.06 0.18 0.10 0.03 0.00 0.00 0.00 0.00 0.00 0.00 0.02 0.05 0.05 0.00 0.00 0.00 0.00 0.02 0.06 0.09 0.14 0.14 0.14 0.06 0.08
0.00 0.00 0.00 0.00 0.00 0.00 0.00 0.00 0.00 0.00 0.00 0.00 0.00 0.00 0.00 0.00 0.01 0.03 0.12 0.12 0.02 0.00 0.00 0.00 0.00 0.00 0.00 0.00 0.03 0.05 0.01 0.00 0.00 0.00 0.01 0.02 0.04 0.19 0.27 0.35 0.52 0.18 0.14
0.00 0.00 0.00 0.00 0.00 0.00 0.00 0.00 0.00 0.00 0.00 0.00 0.00 0.00 0.00 0.00 0.00 0.05 0.04 0.01 0.00 0.00 0.00 0.00 0.00 0.00 0.00 0.01 0.03 0.03 0.01 0.00 0.00 0.00 0.00 0.01 0.09 0.07 0.14 0.27 0.19 0.17 0.14
0.00 0.00 0.00 0.00 0.00 0.00 0.00 0.00 0.00 0.00 0.00 0.00 0.00 0.00 0.00 0.00 0.00 0.03 0.00 0.00 0.00 0.01 0.00 0.01 0.02 0.02 0.01 0.01 0.01 0.01 0.01 0.00 0.00 0.00 0.00 0.00 0.05 0.01 0.07 0.05 0.11 0.08 0.07
0.00 0.00 0.00 0.00 0.00 0.00 0.00 0.00 0.00 0.00 0.00 0.00 0.00 0.00 0.00 0.00 0.00 0.01 0.00 0.00 0.00 0.02 0.05 0.05 0.07 0.05 0.01 0.00 0.00 0.01 0.01 0.00 0.00 0.00 0.00 0.00 0.00 0.01 0.04 0.03 0.08 0.07 0.03
0.00 0.00 0.00 0.00 0.00 0.00 0.00 0.00 0.00 0.00 0.00 0.00 0.00 0.00 0.00 0.00 0.00 0.00 0.00 0.00 0.00 0.00 0.01 0.12 0.13 0.16 0.02 0.01 0.00 0.00 0.00 0.00 0.00 0.00 0.00 0.00 0.00 0.02 0.09 0.03 0.01 0.01 0.00
0.00 0.00 0.00 0.00 0.00 0.00 0.00 0.00 0.00 0.00 0.00 0.00 0.00 0.00 0.00 0.00 0.00 0.00 0.00 0.00 0.00 0.01 0.01 0.03 0.00 0.00 0.02 0.10 0.02 0.00 0.00 0.00 0.00 0.00 0.01 0.02 0.06 0.04 0.01 0.01 0.00 0.00 0.00
0.00 0.00 0.00 0.00 0.00 0.00 0.00 0.00 0.00 0.00 0.00 0.00 0.00 0.00 0.00 0.00 0.00 0.00 0.00 0.00 0.01 0.01 0.00 0.00 0.01 0.01 0.01 0.04 0.02 0.00 0.00 0.00 0.00 0.01 0.01 0.02 0.02 0.02 0.03 0.02 0.00 0.00 0.00
0.00 0.00 0.00 0.00 0.00 0.00 0.00 0.00 0.00 0.00 0.00 0.00 0.00 0.00 0.00 0.00 0.00 0.00 0.00 0.00 0.00 0.00 0.00 0.00 0.00 0.01 0.00 0.02 0.01 0.00 0.00 0.00 0.00 0.00 0.00 0.00 0.00 0.00 0.00 0.00 0.00 0.00 0.00
0.00 0.00 0.00 0.00 0.00 0.00 0.00 0.00 0.00 0.00 0.00 0.00 0.00 0.00 0.00 0.00 0.00 0.00 0.00 0.00 0.00 0.00 0.00 0.00 0.00 0.01 0.01 0.01 0.00 0.01 0.00 0.00 0.00 0.00 0.00 0.00 0.00 0.00 0.00 0.00 0.00 0.00 0.00
0.00 0.00 0.00 0.00 0.00 0.00 0.00 0.00 0.01 0.03 0.00 0.00 0.00 0.00 0.00 0.00 0.00 0.00 0.01 0.00 0.00 0.00 0.00 0.00 0.00 0.00 0.00 0.00 0.00 0.00 0.00 0.00 0.00 0.00 0.00 0.00 0.00 0.00 0.00 0.00 0.00 0.00 0.00
0.00 0.00 0.00 0.00 0.00 0.00 0.00 0.00 0.02 0.02 0.00 0.00 0.00 0.00 0.00 0.00 0.00 0.00 0.00 0.00 0.00 0.00 0.00 0.00 0.00 0.00 0.00 0.00 0.00 0.00 0.00 0.00 0.00 0.00 0.00 0.00 0.00 0.00 0.00 0.00 0.00 0.00 0.00
0.00 0.00 0.00 0.00 0.00 0.00 0.00 0.00 0.01 0.00 0.00 0.00 0.00 0.00 0.00 0.00 0.00 0.00 0.00 0.00 0.00 0.00 0.00 0.00 0.00 0.00 0.00 0.00 0.00 0.00 0.00 0.00 0.00 0.00 0.00 0.00 0.00 0.00 0.00 0.00 0.00 0.00 0.00
0.00 0.00 0.00 0.00 0.00 0.00 0.00 0.00 0.00 0.00 0.00 0.00 0.00 0.00 0.00 0.00 0.00 0.00 0.00 0.00 0.00 0.00 0.00 0.00 0.00 0.00 0.00 0.00 0.00 0.00 0.00 0.00 0.00 0.00 0.00 0.00 0.00 0.00 0.00 0.00 0.00 0.00 0.00
0.00 0.00 0.00 0.00 0.00 0.00 0.00 0.00 0.00 0.00 0.00 0.00 0.00 0.00 0.00 0.00 0.00 0.00 0.00 0.00 0.00 0.00 0.00 0.00 0.00 0.00 0.00 0.00 0.00 0.00 0.00 0.00 0.00 0.00 0.00 0.00 0.00 0.00 0.00 0.00 0.00 0.00 0.00
0.00 0.00 0.00 0.00 0.00 0.00 0.00 0.00 0.00 0.00 0.00 0.00 0.00 0.00 0.00 0.00 0.00 0.00 0.00 0.00 0.00 0.00 0.00 0.00 0.00 0.00 0.00 0.00 0.00 0.00 0.00 0.00 0.00 0.00 0.00 0.00 0.00 0.00 0.00 0.00 0.00 0.00 0.00
0.00 0.00 0.00 0.00 0.00 0.00 0.00 0.00 0.00 0.00 0.00 0.00 0.00 0.00 0.00 0.00 0.00 0.00 0.00 0.00 0.00 0.00 0.00 0.00 0.00 0.00 0.00 0.00 0.00 0.00 0.00 0.00 0.00 0.00 0.00 0.00 0.00 0.00 0.00 0.00 0.00 0.00 0.00
0.00 0.00 0.00 0.00 0.00 0.00 0.00 0.00 0.00 0.00 0.00 0.00 0.00 0.00 0.00 0.00 0.00 0.00 0.00 0.00 0.00 0.00 0.00 0.00 0.00 0.00 0.00 0.00 0.00 0.00 0.00 0.00 0.00 0.00 0.00 0.00 0.00 0.00 0.00 0.00 0.00 0.00 0.00
0.00 0.00 0.00 0.00 0.00 0.00 0.00 0.00 0.00 0.00 0.00 0.00 0.00 0.00 0.00 0.00 0.00 0.00 0.00 0.00 0.00 0.00 0.00 0.00 0.00 0.00 0.00 0.00 0.00 0.00 0.00 0.00 0.00 0.00 0.00 0.00 0.00 0.00 0.00 0.00 0.00 0.00 0.00
0.00 0.00 0.00 0.00 0.00 0.00 0.00 0.00 0.00 0.00 0.00 0.00 0.00 0.00 0.00 0.00 0.00 0.00 0.00 0.00 0.00 0.00 0.00 0.00 0.00 0.00 0.00 0.00 0.00 0.00 0.00 0.00 0.00 0.00 0.00 0.00 0.00 0.00 0.00 0.00 0.00 0.00 0.00
0.00 0.00 0.00 0.00 0.00 0.00 0.00 0.00 0.00 0.00 0.00 0.00 0.00 0.00 0.00 0.00 0.00 0.00 0.00 0.00 0.00 0.00 0.00 0.00 0.00 0.00 0.00 0.00 0.00 0.00 0.00 0.00 0.00 0.00 0.00 0.00 0.00 0.00 0.00 0.00 0.00 0.00 0.00
0.02 0.00 0.00 0.00 0.00 0.00 0.00 0.00 0.00 0.00 0.00 0.00 0.00 0.00 0.00 0.00 0.00 0.00 0.00 0.00 0.00 0.00 0.00 0.00 0.00 0.00 0.00 0.00 0.00 0.00 0.00 0.00 0.00 0.00 0.00 0.00 0.00 0.00 0.00 0.00 0.00 0.00 0.00
0.07 0.07 0.01 0.00 0.00 0.00 0.00 0.00 0.00 0.00 0.00 0.00 0.00 0.00 0.00 0.00 0.00 0.00 0.00 0.00 0.00 0.00 0.00 0.00 0.00 0.00 0.00 0.00 0.00 0.00 0.00 0.00 0.00 0.00 0.00 0.00 0.00 0.00 0.00 0.00 0.00 0.00 0.00
0.03 0.04 0.05 0.03 0.03 0.01 0.00 0.00 0.00 0.00 0.00 0.00 0.00 0.00 0.00 0.00 0.00 0.00 0.00 0.00 0.00 0.00 0.00 0.00 0.00 0.00 0.00 0.00 0.00 0.00 0.00 0.00 0.00 0.00 0.00 0.00 0.00 0.00 0.00 0.00 0.00 0.00 0.00
MSLP
1001.00 1001.49 1002.03 1002.68 1003.25 1003.88 1004.45 1004.93 1005.26 1005.72 1006.06 1006.53 1006.87 1007.04 1007.14 1007.34 1007.48 1007.57 1007.76 1007.95 1008.10 1008.26 1008.43 1008.46 1008.67 1008.91 1009.22 1009.56 1010.14 1010.53 1010.81 1011.11 1011.74 1012.49 1012.71 1012.80 1013.09 1013.32 1013.56 1013.77 1014.09 1014.71 1015.43
1001.52 1001.98 1002.58 1003.14 1003.70 1004.23 1004.70 1005.06 1005.45 1005.84 1006.19 1006.51 1006.73 1006.86 1006.95 1007.00 1007.20 1007.32 1007.40 1007.52 1007.75 1007.93 1008.15 1008.15 1008.46 1008.78 1008.99 1009.24 1009.75 1010.28 1010.68 1010.95 1011.29 1012.23 1012.72 1013.08 1013.44 1013.93 1014.20 1014.49 1015.03 1015.75 1016.42
1001.88 1002.40 1003.10 1003.58 1004.04 1004.47 1004.83 1005.18 1005.54 1005.86 1006.28 1006.56 1006.62 1006.72 1006.81 1006.97 1007.16 1007.18 1007.12 1007.15 1007.28 1007.62 1007.82 1008.07 1008.37 1008.65 1009.06 1009.36 1009.70 1010.16 1010.61 1010.98 1011.46 1012.17 1012.94 1013.37 1013.91 1014.33 1014.76 1015.50 1016.06 1016.76 1017.49
1002.19 1002.69 1003.34 1003.82 1004.26 1004.59 1004.92 1005.36 1005.66 1005.95 1006.27 1006.39 1006.47 1006.64 1006.81 1007.13 1007.15 1007.06 1006.82 1006.97 1007.31 1007.59 1007.78 1007.88 1008.19 1008.45 1008.86 1009.26 1009.71 1010.10 1010.50 1011.06 1011.84 1012.46 1013.17 1013.75 1014.30 1014.96 1015.31 1016.03 1017.07 1017.62 1018.47
1002.36 1002.89 1003.48 1004.00 1004.37 1004.69 1005.03 1005.45 1005.80 1006.02 1006.11 1006.19 1006.47 1006.78 1007.06 1007.30 1007.48 1007.30 1007.02 1007.05 1007.37 1007.64 1007.81 1007.87 1008.05 1008.44 1008.81 1009.18 1009.57 1009.94 1010.31 1010.99 1011.83 1012.64 1013.41 1014.03 1014.69 1015.15 1015.36 1016.52 1017.24 1018.27 1019.27
1002.54 1003.11 1003.57 1003.97 1004.40 1004.74 1005.11 1005.52 1005.89 1005.99 1006.10 1006.30 1006.66 1007.02 1007.28 1007.57 1007.74 1007.44 1007.23 1007.39 1007.56 1007.66 1007.81 1008.02 1008.35 1008.78 1009.19 1009.50 1009.74 1010.09 1010.31 1010.82 1011.64 1012.52 1013.41 1014.14 1014.63 1015.44 1016.12 1016.74 1017.45 1018.53 1019.71
1002.66 1003.10 1003.59 1004.12 1004.55 1004.88 1005.28 1005.64 1005.90 1006.06 1006.13 1006.43 1006.93 1007.27 1007.54 1007.83 1007.84 1007.65 1007.54 1007.72 1007.76 1007.79 1007.89 1008.18 1008.58 1009.09 1009.42 1009.90 1010.25 1010.62 1011.02 1011.53 1011.94 1012.26 1012.99 1013.90 1014.75 1015.43 1016.00 1017.12 1017.89 1018.62 1019.38
1002.67 1003.03 1003.54 1004.19 1004.64 1005.03 1005.34 1005.78 1006.04 1006.17 1006.35 1006.73 1007.22 1007.55 1007.79 1008.11 1008.00 1007.90 1007.80 1007.92 1008.04 1008.20 1008.30 1008.54 1008.82 1009.26 1009.85 1010.15 1010.56 1011.17 1011.69 1012.21 1012.68 1013.07 1013.69 1014.44 1015.14 1015.93 1016.36 1017.26 1018.13 1019.02 1020.08
1002.64 1003.04 1003.55 1004.16 1004.65 1005.09 1005.49 1005.96 1006.17 1006.41 1006.66 1007.00 1007.44 1007.74 1007.93 1008.24 1008.27 1008.08 1008.02 1008.12 1008.33 1008.54 1008.67 1008.96 1009.28 1009.71 1010.12 1010.48 1010.98 1011.62 1012.35 1013.16 1013.39 1013.80 1014.45 1015.28 1015.92 1016.51 1016.93 1017.63 1018.60 1019.05 1020.19
1002.60 1002.95 1003.52 1004.10 1004.59 1005.02 1005.48 1006.06 1006.29 1006.56 1006.82 1007.30 1007.70 1007.92 1008.07 1008.30 1008.48 1008.36 1008.31 1008.39 1008.65 1008.98 1009.26 1009.58 1009.73 1010.11 1010.58 1010.87 1011.44 1011.92 1012.67 1013.48 1014.03 1014.77 1015.60 1016.18 1016.49 1017.14 1017.54 1017.79 1018.07 1018.73 1019.57
1002.47 1003.00 1003.61 1004.06 1004.54 1005.00 1005.57 1005.98 1006.21 1006.59 1006.99 1007.53 1007.80 1007.95 1008.12 1008.35 1008.67 1008.57 1008.58 1008.70 1009.02 1009.38 1009.78 1010.23 1010.69 1010.82 1011.13 1011.36 1011.89 1012.39 1012.88 1013.50 1014.30 1015.02 1015.83 1016.59 1017.12 1017.44 1017.85 1018.21 1018.47 1018.66 1019.43
1002.48 1003.07 1003.60 1004.06 1004.68 1005.18 1005.65 1006.09 1006.44 1006.76 1007.23 1007.72 1007.95 1008.11 1008.37 1008.55 1008.72 1008.89 1008.84 1009.02 1009.31 1009.60 1010.18 1010.79 1011.38 1011.48 1011.74 1012.02 1012.42 1012.88 1013.34 1013.84 1014.48 1015.31 1016.16 1016.90 1017.33 1017.73 1018.12 1018.47 1018.83 1019.20 1019.58
1002.60 1003.18 1003.69 1004.25 1004.76 1005.31 1005.83 1006.28 1006.60 1006.90 1007.22 1007.73 1007.95 1008.13 1008.49 1008.70 1009.04 1009.19 1009.25 1009.38 1009.63 1010.07 1010.58 1011.20 1011.73 1011.95 1012.36 1012.79 1013.22 1013.56 1013.76 1014.16 1014.83 1015.61 1016.23 1016.82 1017.21 1017.75 1018.27 1018.78 1019.23 1019.53 1019.87
1002.66 1003.24 1003.77 1004.34 1004.91 1005.46 1005.90 1006.33 1006.79 1007.13 1007.27 1007.63 1007.90 1008.26 1008.55 1008.80 1009.08 1009.52 1009.84 1010.00 1010.17 1010.75 1011.36 1011.94 1012.16 1012.56 1012.94 1013.66 1014.06 1014.20 1014.30 1014.50 1014.84 1015.51 1016.27 1017.08 1017.68 1018.16 1018.52 1018.87 1019.24 1019.58 1019.82
1002.58 1003.18 1003.79 1004.41 1004.91 1005.54 1006.05 1006.64 1006.79 1006.88 1006.93 1007.39 1007.81 1008.19 1008.54 1008.77 1009.16 1009.38 1009.81 1010.18 1010.46 1010.89 1011.56 1012.05 1012.35 1012.78 1013.48 1013.94 1014.27 1014.46 1014.68 1015.03 1015.33 1015.89 1016.54 1017.12 1017.67 1018.11 1018.47 1018.74 1018.92 1019.36 1019.49
1002.68 1003.30 1003.77 1004.38 1004.96 1005.42 1006.09 1006.87 1007.02 1006.91 1006.90 1007.17 1007.44 1007.85 1008.42 1008.60 1009.00 1009.62 1010.05 1010.29 1010.63 1011.06 1011.52 1011.94 1012.44 1012.96 1013.36 1013.84 1014.17 1014.54 1014.88 1015.20 1015.46 1015.87 1016.45 1016.82 1017.20 1017.68 1018.15 1018.58 1018.71 1018.85 1019.08
1002.39 1003.06 1003.75 1004.34 1004.95 1005.40 1005.94 1006.33 1006.83 1007.43 1007.24 1007.57 1007.79 1007.95 1008.29 1008.62 1009.27 1009.76 1010.16 1010.48 1010.71 1010.95 1011.39 1011.87 1012.20 1012.65 1013.14 1013.59 1013.94 1014.35 1014.69 1015.03 1015.40 1015.68 1016.04 1016.46 1016.82 1017.29 1017.74 1018.03 1018.26 1018.48 1018.64
1002.07 1002.60 1003.23 1003.89 1004.51 1005.13 1005.57 1005.97 1006.39 1006.80 1007.31 1007.91 1008.37 1008.51 1008.77 1009.03 1009.54 1010.15 1010.67 1011.07 1011.40 1011.36 1011.38 1011.73 1012.08 1012.39 1012.78 1013.22 1013.70 1014.19 1014.60 1014.98 1015.25 1015.53 1015.85 1016.15 1016.46 1016.77 1017.32 1017.59 1017.80 1017.91 1018.07
1001.94 1002.63 1003.07 1003.54 1004.10 1004.68 1005.29 1005.79 1006.23 1006.66 1007.03 1007.59 1008.42 1008.94 1009.43 1009.77 1010.10 1010.40 1010.55 1010.59 1010.97 1011.24 1011.50 1011.76 1011.97 1012.29 1012.57 1012.83 1013.39 1013.89 1014.22 1014.43 1014.73 1015.05 1015.35 1015.64 1015.96 1016.33 1016.58 1016.88 1017.11 1017.34 1017.56
1001.69 1002.01 1002.56 1003.13 1003.79 1004.50 1005.07 1005.55 1006.04 1006.42 1006.81 1007.34 1007.98 1008.66 1009.36 1009.76 1010.25 1010.53 1010.44 1010.32 1010.47 1010.64 1010.93 1011.23 1011.58 1011.95 1012.40 1012.80 1013.18 1013.51 1013.80 1014.19 1014.42 1014.58 1014.81 1015.21 1015.51 1015.78 1015.88 1016.05 1016.23 1016.38 1016.56
1001.66 1002.09 1002.44 1003.00 1003.48 1003.89 1004.51 1005.08 1005.45 1005.94 1006.34 1006.79 1007.38 1008.10 1008.25 1008.78 1008.98 1009.32 1009.55 1009.62 1009.71 1009.92 1010.20 1010.54 1010.87 1011.20 1011.57 1011.95 1012.31 1012.69 1013.02 1013.34 1013.72 1014.04 1014.28 1014.51 1014.78 1014.94 1014.99 1015.05 1015.17 1015.35 1015.38
1001.76 1002.13 1002.49 1002.78 1003.22 1003.68 1004.05 1004.47 1005.02 1005.47 1005.87 1006.31 1006.91 1007.89 1008.43 1008.76 1008.60 1008.57 1008.63 1008.68 1008.82 1009.05 1009.32 1009.67 1009.96 1010.23 1010.54 1010.89 1011.20 1011.56 1011.84 1012.07 1012.40 1012.75 1013.11 1013.41 1013.65 1013.80 1013.91 1014.03 1014.12 1014.21 1014.29
1001.59 1002.05 1002.39 1002.67 1002.92 1003.42 1003.97 1004.21 1004.59 1004.98 1005.27 1005.65 1006.25 1007.15 1007.86 1007.83 1007.71 1007.66 1007.61 1007.79 1008.13 1008.38 1008.66 1008.98 1009.21 1009.37 1009.56 1009.75 1009.95 1010.24 1010.53 1010.71 1010.94 1011.36 1011.70 1011.95 1012.19 1012.39 1012.59 1012.70 1012.83 1012.94 1013.06
1002.26 1002.39 1002.73 1002.94 1003.10 1003.42 1003.80 1004.17 1004.45 1004.69 1004.92 1005.22 1005.61 1006.03 1006.45 1006.60 1006.60 1006.46 1006.56 1006.87 1007.19 1007.45 1007.81 1008.05 1008.22 1008.30 1008.49 1008.70 1008.87 1009.04 1009.18 1009.35 1009.65 1009.90 1010.34 1010.65 1010.84 1011.08 1011.24 1011.27 1011.33 1011.41 1011.56
1003.46 1003.73 1003.55 1003.67 1003.74 1003.88 1004.15 1004.43 1004.72 1004.96 1005.20 1005.46 1005.67 1005.87 1005.98 1006.10 1006.17 1006.11 1006.09 1006.28 1006.39 1006.59 1006.64 1006.78 1007.01 1007.10 1007.29 1007.41 1007.50 1007.61 1007.70 1008.07 1008.17 1008.36 1008.77 1009.16 1009.31 1009.43 1009.57 1009.65 1009.80 1010.03 1010.21
1005.53 1005.34 1005.10 1004.83 1005.09 1005.42 1005.56 1005.70 1005.85 1005.92 1006.01 1006.11 1006.12 1006.04 1005.87 1005.77 1005.73 1005.76 1005.82 1005.84 1005.87 1005.92 1006.04 1006.16 1006.12 1006.08 1006.03 1006.11 1006.15 1006.24 1006.58 1006.95 1007.34 1007.61 1007.70 1007.96 1008.10 1008.05 1008.17 1008.15 1008.32 1008.56 1008.76
Thickness
5708 5704 5698 5691 5686 5679 5672 5667 5663 5658 5655 5649 5645 5644 5642 5640 5637 5634 5630 5627 5623 5618 5616 5616 5615 5613 5611 5609 5606 5604 5606 5608 5606 5606 5609 5613 5615 5617 5620 5623 5625 5623 5622
5701 5696 5690 5684 5677 5671 5666 5662 5658 5655 5651 5647 5644 5643 5642 5640 5637 5634 5630 5628 5624 5621 5617 5617 5616 5614 5612 5612 5609 5608 5607 5609 5612 5607 5608 5610 5612 5612 5615 5617 5616 5614 5612
5694 5689 5682 5675 5670 5665 5662 5659 5655 5652 5647 5644 5643 5642 5641 5639 5635 5633 5631 5629 5622 5621 5619 5616 5615 5614 5612 5612 5611 5610 5609 5611 5611 5608 5605 5607 5607 5608 5609 5607 5607 5605 5603
5688 5683 5675 5670 5665 5662 5658 5654 5651 5648 5644 5643 5643 5642 5639 5636 5635 5633 5633 5629 5624 5620 5618 5617 5617 5616 5614 5613 5611 5610 5611 5610 5608 5606 5604 5604 5604 5602 5605 5604 5600 5599 5596
5683 5677 5671 5665 5660 5656 5652 5648 5646 5643 5643 5643 5642 5639 5636 5634 5630 5631 5631 5628 5623 5619 5618 5618 5618 5616 5615 5614 5613 5612 5613 5611 5608 5605 5602 5602 5601 5600 5603 5600 5600 5595 5589
5678 5672 5666 5662 5656 5653 5648 5645 5642 5641 5641 5641 5640 5637 5635 5632 5626 5630 5630 5627 5622 5621 5620 5618 5616 5613 5611 5611 5612 5612 5614 5612 5608 5606 5602 5602 5602 5600 5599 5599 5599 5593 5588
5674 5669 5664 5658 5654 5650 5646 5643 5640 5640 5640 5640 5636 5635 5633 5631 5627 5630 5629 5627 5624 5623 5622 5619 5615 5612 5612 5611 5609 5609 5609 5608 5610 5609 5606 5604 5602 5601 5601 5597 5595 5593 5590
5672 5668 5663 5657 5652 5647 5645 5641 5639 5639 5638 5637 5633 5632 5632 5628 5627 5628 5629 5628 5624 5622 5621 5617 5614 5612 5609 5610 5611 5609 5609 5608 5605 5605 5604 5602 5601 5599 5599 5597 5594 5591 5586
5670 5666 5662 5656 5650 5646 5643 5638 5637 5636 5635 5634 5632 5631 5631 5628 5625 5628 5631 5630 5626 5622 5620 5616 5613 5610 5606 5607 5609 5608 5606 5602 5603 5603 5601 5598 5596 5595 5594 5595 5593 5593 5588
5668 5666 5660 5655 5650 5646 5642 5637 5635 5634 5634 5632 5630 5631 5630 5629 5626 5627 5631 5630 5627 5622 5619 5614 5611 5609 5606 5608 5608 5607 5605 5603 5603 5600 5598 5594 5594 5593 5594 5595 5599 5598 5595
5670 5665 5659 5655 5650 5645 5640 5638 5636 5633 5632 5630 5630 5631 5632 5631 5628 5627 5630 5630 5627 5624 5622 5617 5612 5609 5608 5608 5608 5608 5607 5605 5603 5602 5599 5596 5594 5594 5594 5595 5598 5601 5599
5669 5663 5658 5654 5649 5643 5639 5636 5634 5632 5631 5628 5629 5631 5631 5631 5629 5626 5629 5628 5627 5626 5623 5620 5613 5612 5612 5611 5610 5606 5605 5607 5607 5604 5601 5599 5598 5597 5598 5598 5600 5600 5600
5666 5661 5658 5653 5648 5643 5638 5634 5631 5630 5631 5628 5631 5633 5632 5632 5629 5626 5626 5626 5627 5626 5624 5618 5614 5614 5613 5611 5608 5606 5608 5610 5609 5607 5605 5602 5603 5600 5599 5599 5599 5600 5599
5666 5661 5658 5654 5648 5642 5638 5635 5631 5629 5630 5631 5634 5634 5633 5633 5631 5628 5627 5627 5625 5621 5617 5616 5616 5614 5614 5609 5608 5609 5611 5613 5613 5611 5608 5604 5602 5602 5602 5603 5602 5601 5602
5666 5663 5659 5655 5651 5644 5639 5635 5633 5633 5636 5635 5636 5637 5635 5635 5633 5633 5631 5630 5629 5625 5621 5620 5620 5619 5615 5614 5613 5613 5614 5613 5613 5611 5608 5607 5606 5605 5605 5606 5606 5604 5605
5666 5663 5661 5657 5653 5649 5642 5635 5628 5633 5636 5639 5639 5641 5639 5637 5633 5630 5628 5629 5628 5627 5626 5625 5623 5621 5619 5618 5618 5617 5617 5616 5617 5616 5613 5612 5612 5611 5610 5609 5609 5609 5608
5670 5666 5662 5659 5656 5652 5647 5645 5642 5636 5635 5637 5637 5639 5641 5640 5634 5632 5630 5630 5631 5632 5632 5630 5628 5627 5625 5623 5622 5621 5620 5620 5620 5620 5619 5618 5617 5615 5610 5613 5612 5610 5610
5675 5669 5668 5665 5662 5657 5654 5652 5650 5647 5647 5644 5636 5638 5638 5637 5636 5633 5630 5631 5632 5632 5635 5633 5632 5631 5629 5628 5626 5624 5623 5622 5622 5622 5621 5621 5620 5619 5615 5615 5614 5613 5612
5678 5673 5671 5669 5667 5663 5659 5656 5654 5652 5651 5650 5643 5640 5635 5634 5634 5634 5635 5642 5639 5637 5634 5633 5634 5633 5633 5632 5629 5627 5627 5627 5627 5626 5625 5624 5623 5621 5619 5617 5616 5610 5611
5682 5679 5677 5674 5670 5666 5663 5660 5657 5656 5655 5654 5653 5651 5642 5642 5643 5640 5640 5644 5644 5643 5641 5640 5638 5637 5635 5634 5633 5631 5631 5628 5628 5628 5627 5625 5623 5622 5622 5621 5620 5620 5617
5682 5679 5678 5675 5672 5671 5669 5666 5665 5662 5661 5660 5660 5657 5653 5660 5658 5654 5650 5650 5651 5650 5648 5647 5645 5644 5643 5641 5640 5638 5637 5636 5634 5632 5630 5629 5627 5626 5626 5626 5625 5624 5624
5678 5678 5678 5677 5674 5671 5670 5670 5668 5666 5665 5665 5664 5659 5649 5657 5660 5660 5659 5658 5658 5658 5656 5654 5653 5652 5650 5648 5647 5645 5644 5644 5642 5640 5637 5635 5633 5632 5631 5629 5629 5628 5627
5677 5675 5676 5677 5677 5673 5670 5670 5669 5669 5669 5669 5668 5663 5655 5661 5664 5664 5664 5664 5663 5662 5661 5659 5658 5658 5657 5655 5654 5653 5651 5650 5649 5646 5644 5642 5641 5639 5637 5635 5634 5633 5631
5666 5669 5668 5671 5673 5672 5670 5668 5668 5667 5669 5670 5669 5668 5666 5665 5666 5668 5669 5668 5667 5666 5664 5663 5663 5663 5662 5661 5659 5659 5658 5657 5654 5652 5649 5647 5645 5642 5641 5640 5640 5639 5638
5650 5652 5658 5661 5662 5662 5662 5661 5660 5661 5662 5663 5664 5665 5665 5664 5664 5665 5666 5666 5667 5667 5668 5668 5667 5667 5665 5665 5665 5665 5665 5663 5661 5659 5655 5652 5651 5650 5649 5647 5646 5644 5642
5624 5629 5635 5640 5642 5643 5646 5647 5648 5649 5650 5651 5653 5656 5659 5660 5662 5663 5664 5666 5666 5667 5666 5665 5666 5667 5667 5667 5667 5668 5666 5664 5661 5658 5654 5652 5652 5654 5652 5652 5650 5647 5645